• In United Kingdom
  • List of Countries
  • For 7 days
  • Water Temperature
  • Satellite Maps
  • Weather Map
  • Weather Widgets
  • user-avatar
    Login

    Hourly Weather Heredia

    Today, 21 October, Sunday

    Time Temperature Precipitation Wind Pressure Humidity
    00:00 +19°C° 0.1 mm 1 mps 661 mmHg 90%
    01:00 +19°C° 0.1 mm 1 mps 661 mmHg 90%
    02:00 +19°C° 0.1 mm 1 mps 661 mmHg 90%
    03:00 +19°C° 0.1 mm 1 mps 661 mmHg 90%
    04:00 +19°C° 0.1 mm 1 mps 661 mmHg 90%
    05:00 +19°C° 0.1 mm 1 mps 662 mmHg 90%
    06:00 +19°C° 0.1 mm 1 mps 662 mmHg 90%
    07:00 +21°C° 0.1 mm 1 mps 663 mmHg 85%
    08:00 +22°C° 0.1 mm 1 mps 663 mmHg 80%
    09:00 +24°C° 0.1 mm 1 mps 664 mmHg 74%
    10:00 +24°C° 0.4 mm 1 mps 664 mmHg 75%
    11:00 +24°C° 0.4 mm 1 mps 663 mmHg 76%
    12:00 +24°C° 0.4 mm 1 mps 663 mmHg 77%
    13:00 +23°C° 1 mm 1 mps 662 mmHg 80%
    14:00 +23°C° 1 mm 1 mps 662 mmHg 83%
    15:00 +22°C° 1 mm 1 mps 661 mmHg 86%
    16:00 +21°C° 0.3 mm 1 mps 661 mmHg 88%
    17:00 +21°C° 0.3 mm 1 mps 661 mmHg 90%
    18:00 +20°C° 0.3 mm 1 mps 661 mmHg 92%
    19:00 +20°C° 0 mm 1 mps 662 mmHg 92%
    20:00 +19°C° 0 mm 1 mps 662 mmHg 91%
    21:00 +19°C° 0 mm 1 mps 662 mmHg 91%
    22:00 +19°C° 0 mm 1 mps 662 mmHg 90%
    23:00 +19°C° 0 mm 1 mps 662 mmHg 90%

    Tomorrow, 22 October, Monday

    Time Temperature Precipitation Wind Pressure Humidity
    00:00 +18°C° 0 mm 1 mps 662 mmHg 89%
    01:00 +18°C° 0 mm 1 mps 661 mmHg 89%
    02:00 +18°C° 0 mm 1 mps 661 mmHg 89%
    03:00 +18°C° 0 mm 1 mps 661 mmHg 88%
    04:00 +18°C° 0 mm 1 mps 661 mmHg 88%
    05:00 +18°C° 0 mm 1 mps 661 mmHg 88%
    06:00 +18°C° 0 mm 1 mps 662 mmHg 87%
    07:00 +20°C° 0 mm 1 mps 663 mmHg 81%
    08:00 +22°C° 0 mm 1 mps 664 mmHg 74%
    09:00 +24°C° 0 mm 1 mps 665 mmHg 68%
    10:00 +25°C° 0 mm 1 mps 664 mmHg 67%
    11:00 +25°C° 0 mm 1 mps 664 mmHg 65%
    12:00 +26°C° 0 mm 2 mps 664 mmHg 64%
    13:00 +25°C° 0.3 mm 1 mps 663 mmHg 68%
    14:00 +24°C° 0.3 mm 1 mps 663 mmHg 72%
    15:00 +24°C° 0.3 mm 1 mps 662 mmHg 75%
    16:00 +23°C° 0.3 mm 1 mps 662 mmHg 81%
    17:00 +21°C° 0.3 mm 1 mps 662 mmHg 86%
    18:00 +18°C° 0.3 mm 0 mps 662 mmHg 91%
    19:00 +20°C° 0.1 mm 1 mps 662 mmHg 91%
    20:00 +20°C° 0.1 mm 1 mps 663 mmHg 91%
    21:00 +20°C° 0.1 mm 1 mps 663 mmHg 91%
    22:00 +19°C° 0 mm 1 mps 663 mmHg 90%
    23:00 +19°C° 0 mm 1 mps 663 mmHg 89%

    Day after tomorrow, 23 October, Tuesday

    Time Temperature Precipitation Wind Pressure Humidity
    00:00 +19°C° 0 mm 1 mps 663 mmHg 88%
    01:00 +19°C° 0 mm 1 mps 662 mmHg 88%
    02:00 +18°C° 0 mm 1 mps 662 mmHg 87%
    03:00 +18°C° 0 mm 1 mps 661 mmHg 87%
    04:00 +18°C° 0 mm 1 mps 661 mmHg 87%
    05:00 +18°C° 0 mm 1 mps 662 mmHg 86%
    06:00 +18°C° 0 mm 1 mps 662 mmHg 86%
    07:00 +21°C° 0 mm 1 mps 663 mmHg 79%
    08:00 +23°C° 0 mm 1 mps 664 mmHg 72%
    09:00 +25°C° 0 mm 1 mps 665 mmHg 65%
    10:00 +26°C° 0 mm 1 mps 665 mmHg 63%
    11:00 +26°C° 0 mm 2 mps 664 mmHg 61%
    12:00 +27°C° 0 mm 2 mps 664 mmHg 59%
    13:00 +26°C° 0.7 mm 2 mps 663 mmHg 64%
    14:00 +25°C° 0.7 mm 2 mps 663 mmHg 69%
    15:00 +24°C° 0.7 mm 2 mps 662 mmHg 73%
    16:00 +23°C° 0.3 mm 1 mps 662 mmHg 80%
    17:00 +22°C° 0.3 mm 1 mps 662 mmHg 86%
    18:00 +18°C° 0.3 mm 0 mps 662 mmHg 92%
    19:00 +18°C° 0 mm 0 mps 663 mmHg 92%
    20:00 +18°C° 0 mm 0 mps 663 mmHg 93%
    21:00 +20°C° 0 mm 1 mps 663 mmHg 93%
    22:00 +19°C° 0 mm 1 mps 663 mmHg 92%
    23:00 +19°C° 0 mm 1 mps 663 mmHg 91%

    24 October, Wednesday

    Time Temperature Precipitation Wind Pressure Humidity
    00:00 +19°C° 0 mm 1 mps 662 mmHg 90%
    01:00 +18°C° 0 mm 1 mps 662 mmHg 89%
    02:00 +18°C° 0 mm 1 mps 662 mmHg 87%
    03:00 +18°C° 0 mm 1 mps 661 mmHg 86%
    04:00 +18°C° 0 mm 1 mps 662 mmHg 85%
    05:00 +18°C° 0 mm 1 mps 662 mmHg 84%
    06:00 +18°C° 0 mm 1 mps 662 mmHg 84%
    07:00 +21°C° 0 mm 1 mps 663 mmHg 77%
    08:00 +23°C° 0 mm 1 mps 664 mmHg 70%
    09:00 +26°C° 0 mm 1 mps 665 mmHg 63%
    10:00 +26°C° 0.1 mm 1 mps 665 mmHg 63%
    11:00 +26°C° 0.1 mm 2 mps 664 mmHg 64%
    12:00 +26°C° 0.1 mm 2 mps 664 mmHg 64%
    13:00 +25°C° 0.5 mm 2 mps 663 mmHg 70%
    14:00 +24°C° 0.5 mm 1 mps 662 mmHg 75%
    15:00 +24°C° 0.5 mm 1 mps 662 mmHg 80%
    16:00 +23°C° 0.5 mm 1 mps 662 mmHg 85%
    17:00 +22°C° 0.5 mm 1 mps 662 mmHg 90%
    18:00 +18°C° 0.5 mm 0 mps 662 mmHg 94%
    19:00 +18°C° 0.1 mm 0 mps 663 mmHg 94%
    20:00 +18°C° 0.1 mm 0 mps 663 mmHg 94%
    21:00 +18°C° 0.1 mm 0 mps 663 mmHg 94%
    22:00 +18°C° 0 mm 0 mps 663 mmHg 93%
    23:00 +17°C° 0 mm 0 mps 662 mmHg 93%

    25 October, Thursday

    Time Temperature Precipitation Wind Pressure Humidity
    00:00 +17°C° 0 mm 0 mps 662 mmHg 92%
    01:00 +17°C° 0 mm 0 mps 662 mmHg 91%
    02:00 +18°C° 0 mm 1 mps 661 mmHg 90%
    03:00 +18°C° 0 mm 1 mps 661 mmHg 88%
    04:00 +18°C° 0 mm 1 mps 661 mmHg 87%
    05:00 +18°C° 0 mm 1 mps 662 mmHg 86%
    06:00 +18°C° 0 mm 1 mps 662 mmHg 85%
    07:00 +21°C° 0 mm 1 mps 663 mmHg 78%
    08:00 +23°C° 0 mm 1 mps 664 mmHg 70%
    09:00 +26°C° 0 mm 1 mps 665 mmHg 63%
    10:00 +26°C° 0.2 mm 1 mps 664 mmHg 64%
    11:00 +26°C° 0.2 mm 1 mps 664 mmHg 66%
    12:00 +26°C° 0.2 mm 2 mps 663 mmHg 67%
    13:00 +25°C° 0.7 mm 2 mps 662 mmHg 72%
    14:00 +24°C° 0.7 mm 1 mps 662 mmHg 77%
    15:00 +23°C° 0.7 mm 1 mps 661 mmHg 82%
    16:00 +22°C° 0.9 mm 1 mps 661 mmHg 86%
    17:00 +21°C° 0.9 mm 1 mps 662 mmHg 91%
    18:00 +18°C° 0.9 mm 0 mps 662 mmHg 95%
    19:00 +18°C° 0.4 mm 0 mps 662 mmHg 95%
    20:00 +18°C° 0.4 mm 0 mps 662 mmHg 95%
    21:00 +18°C° 0.4 mm 0 mps 662 mmHg 95%
    22:00 +18°C° 0.1 mm 0 mps 662 mmHg 94%
    23:00 +17°C° 0.1 mm 0 mps 662 mmHg 93%

    26 October, Friday

    Time Temperature Precipitation Wind Pressure Humidity
    00:00 +17°C° 0.1 mm 0 mps 661 mmHg 93%
    01:00 +17°C° 0 mm 0 mps 661 mmHg 92%
    02:00 +19°C° 0 mm 1 mps 661 mmHg 91%
    03:00 +18°C° 0 mm 1 mps 661 mmHg 91%
    04:00 +18°C° 0 mm 1 mps 661 mmHg 90%
    05:00 +18°C° 0 mm 1 mps 661 mmHg 89%
    06:00 +18°C° 0 mm 1 mps 662 mmHg 88%
    07:00 +21°C° 0 mm 1 mps 663 mmHg 80%
    08:00 +23°C° 0 mm 1 mps 663 mmHg 72%
    09:00 +25°C° 0 mm 1 mps 664 mmHg 65%
    10:00 +26°C° 0 mm 1 mps 664 mmHg 65%
    11:00 +26°C° 0 mm 2 mps 663 mmHg 64%
    12:00 +26°C° 0 mm 2 mps 663 mmHg 64%
    13:00 +25°C° 0.5 mm 2 mps 662 mmHg 69%
    14:00 +24°C° 0.5 mm 2 mps 662 mmHg 75%
    15:00 +24°C° 0.5 mm 1 mps 661 mmHg 80%
    16:00 +22°C° 0.5 mm 1 mps 661 mmHg 85%
    17:00 +21°C° 0.5 mm 1 mps 661 mmHg 90%
    18:00 +18°C° 0.5 mm 0 mps 661 mmHg 95%
    19:00 +18°C° 0.2 mm 0 mps 662 mmHg 95%
    20:00 +18°C° 0.2 mm 0 mps 662 mmHg 95%
    21:00 +18°C° 0.2 mm 0 mps 663 mmHg 95%
    22:00 +18°C° 0.1 mm 0 mps 662 mmHg 95%
    23:00 +17°C° 0.1 mm 0 mps 662 mmHg 94%
    Show more